Location: Newark
(63.8600°N, 149.4141°W)
Time: 15:13:17
(UTC+00:00)

N. Korean satellite - Visible Passes

Search period start: 26 September 2020 00:00
Search period end: 06 October 2020 00:00
Orbit: 455 x 503 km, 97.2° (Epoch: 26 September)

Date Brightness Start Highest point End Pass type
(mag) Time Alt. Az. Time Alt. Az. Time Alt. Az.
26 Sep 10.1 14:16:50 10° NE 14:18:41 13° E 14:20:30 10° ESE visible
28 Sep 9.3 14:57:18 10° NE 15:00:26 25° E 15:03:30 10° SSE visible
29 Sep 9.8 14:31:40 10° NE 14:34:08 17° E 14:36:33 10° SE visible
30 Sep 10.3 14:06:42 10° ENE 14:07:44 11° E 14:08:45 10° E visible
01 Oct 8.7 15:12:26 10° NNE 15:15:47 33° E 15:19:04 10° SSE visible
02 Oct 9.6 14:46:39 10° NE 14:49:31 21° E 14:52:20 10° SE visible
03 Oct 10.0 14:21:11 10° NE 14:23:10 14° E 14:25:08 10° ESE visible
04 Oct 10.7 04:16:29 10° W 04:17:32 11° W 04:18:35 10° WNW visible
05 Oct 9.1 15:01:42 10° NNE 15:04:50 27° E 15:07:56 10° SSE visible
